RH
66 67 61 65 68 69 80 80 72 58 54 57 55 54 46 44 40 35 28 7 8 4 5 8 26 37 55 44 34 35 36 44 57 62 65 67 67 65 60 51 49 44 30
66 73 66 66 68 68 78 81 75 62 57 57 59 56 50 48 45 36 34 9 6 5 5 14 22 16 34 28 22 21 24 34 40 51 54 54 46 42 37 25 19 9 6
32 53 66 64 66 72 72 83 78 74 66 57 59 63 54 50 49 42 38 18 6 5 8 68 33 17 12 10 12 11 10 9 10 20 30 23 23 14 15 13 9 6 5
29 31 34 58 56 72 74 83 82 79 74 68 61 60 65 55 52 48 39 34 8 5 7 15 12 13 12 10 10 10 10 9 8 8 6 5 5 5 5 5 5 4 4
32 32 35 38 50 62 78 79 85 82 81 76 68 63 63 63 56 53 44 39 16 5 4 5 7 8 10 10 11 12 11 11 10 10 9 9 8 6 6 5 5 6 7
12 32 46 47 42 51 71 83 85 85 86 82 77 66 63 64 59 56 51 40 31 7 4 5 5 7 9 10 10 11 12 12 12 11 10 10 9 9 9 10 10 10 10
7 6 31 64 60 55 60 84 88 89 89 86 78 70 68 65 64 60 54 46 39 13 4 4 5 6 8 10 10 10 10 12 13 13 13 13 12 11 10 9 9 9 9
1 3 4 21 67 78 71 82 94 94 91 89 83 71 70 68 65 65 58 55 42 28 6 4 5 5 7 9 11 10 9 10 13 13 12 12 13 13 12 10 9 8 9
2 1 2 3 23 66 74 76 99 98 94 96 89 95 78 73 70 67 63 58 49 35 14 4 5 5 6 8 10 10 9 8 9 13 12 9 9 12 12 13 12 12 12
2 2 1 2 13 47 66 73 79 100 100 87 97 95 70 74 77 72 68 59 57 42 28 8 4 5 6 8 9 10 9 8 7 8 12 11 8 8 8 9 8 8 7
2 2 2 2 8 53 67 67 72 86 100 100 99 100 80 83 83 76 74 61 60 51 33 20 5 5 6 7 9 9 8 8 8 7 7 11 12 8 7 7 7 8 8
3 4 3 2 3 31 74 73 72 73 94 100 100 100 98 84 90 78 76 68 62 61 48 26 10 4 5 7 9 9 8 7 7 6 7 6 9 10 8 8 8 8 9
5 5 4 3 2 6 35 74 78 77 78 96 100 100 99 98 93 91 80 76 67 62 54 29 17 5 5 6 8 9 9 8 7 7 7 6 6 8 11 9 10 10 10
6 7 8 6 2 2 8 43 78 86 82 98 100 98 100 89 98 98 83 80 70 62 57 43 22 9 5 6 8 9 9 9 8 7 7 7 6 6 6 10 11 11 12
6 6 8 8 5 3 3 11 45 82 88 93 99 99 100 99 98 98 94 87 80 68 63 56 34 17 5 5 7 9 9 9 8 8 7 7 6 6 6 6 7 10 12
9 6 6 7 7 5 4 4 14 53 86 93 99 100 100 100 100 92 99 91 88 76 72 63 57 25 12 5 6 8 9 10 9 9 8 7 7 6 6 6 7 7 7
10 9 8 10 10 8 6 5 6 34 68 88 100 100 100 99 100 100 99 98 98 84 78 72 66 43 20 7 5 6 9 10 9 10 9 8 7 7 6 6 7 8 8
8 9 8 10 10 9 8 6 4 12 36 69 96 98 100 100 100 99 100 100 100 91 87 76 77 65 31 15 6 6 7 10 10 10 9 8 8 7 7 6 7 8 9
10 10 11 11 8 8 7 8 6 5 11 31 62 98 100 100 96 98 100 100 100 99 94 85 83 79 58 27 12 6 6 8 10 10 10 9 8 8 7 7 6 7 10
13 13 13 7 8 12 12 10 10 7 6 11 17 67 99 100 100 99 100 100 100 100 98 95 92 85 80 56 24 10 6 7 8 10 10 10 10 8 7 7 6 7 8
13 14 12 8 8 9 13 13 10 8 6 6 13 23 97 100 100 100 98 100 100 99 100 97 100 87 87 81 51 19 8 6 7 9 10 10 10 9 8 7 7 7 7
9 16 17 15 10 9 9 10 9 8 8 6 6 9 27 93 99 100 100 100 100 100 100 99 100 100 93 87 69 45 17 7 6 6 7 10 11 10 9 8 8 7 7
4 5 13 20 18 12 10 8 8 8 7 7 6 6 7 18 98 100 100 100 100 100 100 100 100 100 99 78 75 71 44 15 7 5 6 7 9 10 10 9 8 8 8
4 3 5 11 16 18 16 14 10 8 7 7 7 6 6 7 42 93 99 100 100 100 100 100 100 98 99 87 80 81 63 41 16 7 6 6 7 8 9 10 9 9 8
7 6 4 2 3 17 18 17 16 11 9 10 10 8 6 4 7 31 79 99 99 100 99 100 99 100 98 99 90 83 70 58 41 21 10 7 6 6 8 9 10 10 9
11 9 8 4 2 2 5 19 18 16 11 13 12 9 8 6 5 6 26 93 99 100 100 99 99 100 100 100 98 92 73 66 55 43 29 15 8 7 8 8 9 9 10
Wind_Speed
13 14 17 17 16 15 12 10 9 7 6 7 7 6 5 4 2 4 6 6 3 2 2 7 12 12 15 14 13 13 10 9 10 10 8 8 9 9 7 7 8 8 10
18 15 15 13 17 18 16 14 13 11 9 9 8 8 8 6 3 3 4 5 3 2 3 7 14 13 13 13 12 12 11 9 8 7 5 4 4 4 4 5 5 4 5
22 23 19 16 15 20 20 18 16 15 13 11 11 11 10 9 6 3 3 3 2 0 4 10 10 14 11 11 10 11 9 7 6 5 4 4 3 2 2 3 3 4 4
18 23 26 25 20 19 22 22 21 19 18 16 14 14 13 11 9 6 3 2 2 2 3 7 8 10 11 10 9 9 10 8 6 5 4 3 3 2 2 2 2 3 3
25 24 24 30 25 24 24 26 25 22 21 19 17 17 16 14 12 10 7 5 3 4 5 6 8 8 8 8 8 8 6 7 6 5 4 4 4 4 3 2 2 2 1
28 30 28 28 31 29 28 28 29 26 25 23 21 19 18 17 15 13 11 8 6 7 7 7 8 9 8 8 6 7 6 5 4 4 3 3 4 5 6 5 3 2 1
35 33 36 33 31 34 33 31 31 31 29 26 24 23 22 20 19 17 15 11 9 9 10 10 10 11 10 9 8 6 6 5 5 4 3 3 3 3 4 4 4 3 2
39 41 39 42 38 36 36 35 33 35 33 31 28 28 25 24 22 21 18 15 13 11 11 12 12 13 12 10 9 8 6 6 6 6 5 4 3 3 4 5 6 6 6
41 44 45 45 47 44 40 36 36 37 42 39 33 31 29 27 25 24 22 19 16 14 13 14 15 15 15 13 11 9 8 7 7 7 7 6 5 4 4 5 5 6 6
43 45 49 49 50 49 48 43 38 37 40 38 37 35 33 31 29 28 25 23 20 18 16 15 17 17 17 16 14 12 10 9 7 7 7 8 7 6 6 6 6 6 6
41 43 46 50 52 54 50 50 43 42 37 35 42 38 35 32 32 32 29 27 24 22 19 18 18 18 19 19 18 16 14 11 9 7 7 6 7 7 8 8 8 8 8
36 37 42 45 51 58 53 51 50 46 39 34 43 42 38 40 36 34 32 30 27 26 23 22 20 20 21 21 20 19 16 14 12 9 8 7 6 6 7 8 8 9 8
34 34 35 36 43 54 57 51 51 50 48 42 39 46 42 42 39 39 36 35 32 31 28 25 23 23 22 22 22 21 18 16 14 12 11 10 9 8 8 8 8 8 8
32 31 32 32 33 44 53 55 52 51 47 46 27 54 50 50 54 39 41 37 36 34 32 28 25 24 24 25 24 23 21 18 16 14 13 12 11 11 10 10 9 8 7
30 28 29 28 27 31 39 48 56 52 51 46 38 34 35 56 49 45 43 41 40 37 35 31 28 27 27 27 27 25 24 21 19 16 15 14 13 12 11 10 9 9 8
31 29 30 30 27 25 28 36 50 56 52 55 44 37 33 37 58 64 42 43 42 41 39 34 31 29 28 29 29 28 27 25 23 18 17 16 15 14 12 11 10 9 9
31 29 31 32 31 29 27 28 40 51 54 51 52 42 36 36 28 57 47 48 46 45 43 39 34 32 31 30 31 31 29 27 26 22 20 18 17 16 14 12 11 11 10
28 28 30 32 34 32 30 28 30 43 48 54 57 47 49 36 33 38 56 50 48 49 47 42 37 35 33 32 32 33 32 31 29 26 24 22 20 18 16 15 14 12 11
27 27 29 33 33 34 32 29 28 30 45 56 53 55 48 42 45 8 44 53 50 51 49 44 40 39 36 33 34 34 34 34 32 30 29 26 24 22 20 18 16 15 13
27 28 29 31 30 31 30 29 27 27 36 48 51 62 49 45 50 36 16 45 56 48 53 49 44 41 39 37 36 36 36 36 35 33 31 29 27 25 22 20 19 17 15
27 28 29 29 31 30 26 26 25 26 29 37 56 58 64 47 50 36 16 11 52 57 52 52 46 44 44 44 41 38 38 39 38 36 35 33 30 27 24 22 21 18 16
26 28 29 30 31 31 28 25 26 25 25 30 37 44 57 58 55 47 41 40 20 63 52 53 51 50 47 48 43 39 40 40 39 39 38 36 33 30 27 25 22 19 19
26 27 30 31 32 32 34 31 29 29 29 27 30 31 38 57 66 50 52 51 38 41 59 50 56 56 53 48 47 44 42 40 40 41 40 37 35 33 30 28 24 22 21
24 25 27 30 32 34 35 37 36 34 32 31 31 31 29 37 66 73 53 58 39 24 38 51 56 60 55 52 49 49 44 44 41 40 39 38 37 35 33 30 26 24 22
26 26 24 25 30 33 35 37 38 38 36 34 34 32 30 31 42 69 65 63 47 33 32 37 54 57 59 55 53 48 48 46 44 40 37 35 36 35 33 30 28 26 24
28 29 28 26 26 29 31 35 37 39 38 36 34 32 31 29 31 42 63 62 48 31 27 30 45 56 60 58 52 53 52 48 44 39 37 34 33 31 32 30 28 27 26
Wind_Direction
228 227 223 228 224 228 229 203 187 189 212 233 240 228 231 246 312 356 3 2 17 63 95 117 116 105 105 97 99 101 101 104 101 106 110 113 122 123 118 98 89 104 113
228 228 226 227 221 225 231 225 198 191 206 224 235 237 235 238 250 318 356 3 7 80 106 129 125 106 101 107 105 104 105 109 110 110 113 121 135 168 149 133 119 109 97
243 237 232 234 242 222 228 227 212 201 202 216 226 235 234 235 237 253 313 357 339 67 119 130 123 115 108 104 113 107 106 106 113 129 163 174 178 215 198 147 137 130 126
265 248 241 241 241 234 225 230 219 209 200 207 217 229 235 232 236 236 248 279 283 219 167 150 143 131 130 119 107 116 120 121 126 129 156 161 159 178 192 161 142 125 120
261 258 247 245 236 234 229 225 229 218 211 205 211 220 231 231 235 236 231 239 239 214 210 191 163 156 140 127 116 112 112 117 120 126 148 160 179 183 188 173 153 122 88
261 254 249 243 242 232 233 225 230 227 218 211 209 216 223 232 233 232 231 224 228 225 210 206 188 177 161 145 132 122 115 112 116 118 122 137 169 183 176 179 181 179 229
274 264 251 244 237 235 230 230 227 228 222 215 210 211 220 224 230 230 230 225 225 223 219 208 201 190 181 169 154 146 140 130 122 112 104 116 130 131 129 136 143 162 149
278 273 261 251 240 232 231 232 229 226 226 219 210 212 214 221 226 230 227 226 223 219 220 217 207 199 190 189 173 168 165 157 143 124 112 106 101 107 107 109 115 125 127
282 276 266 253 248 240 237 234 229 228 218 217 215 220 213 218 224 228 226 225 222 219 220 220 218 206 195 199 186 186 182 182 167 146 139 124 107 122 131 126 130 129 134
285 279 271 256 246 247 242 243 235 228 224 218 215 211 214 212 221 225 226 225 223 219 217 223 222 215 202 200 197 195 197 197 186 171 160 148 141 137 137 128 126 128 131
295 287 273 261 246 245 244 243 240 233 231 236 216 211 214 215 219 223 222 224 225 223 215 220 222 220 214 204 204 202 199 201 202 192 181 172 157 152 147 140 136 135 131
300 293 280 269 252 245 244 242 241 236 239 244 211 211 215 213 219 222 222 220 224 228 221 215 219 220 217 214 209 210 205 202 203 200 198 190 175 169 162 156 152 149 150
299 297 289 279 263 251 249 244 242 241 238 228 217 217 217 213 214 223 223 220 221 223 221 217 214 219 216 217 215 215 213 209 205 204 207 199 193 190 184 179 174 172 171
297 295 291 288 274 261 256 249 245 244 236 232 231 217 211 207 211 220 224 221 221 223 223 218 216 218 218 215 216 216 215 216 211 208 211 213 208 202 198 195 195 194 191
291 293 289 291 285 273 266 260 251 248 241 239 226 231 215 202 202 217 222 223 222 220 225 221 219 218 217 217 217 216 217 216 217 214 214 215 218 217 213 208 207 210 213
285 286 287 288 290 284 277 268 259 254 248 242 234 224 221 202 203 205 210 226 224 222 224 222 222 222 219 218 219 216 217 219 218 216 219 221 220 222 221 219 219 223 227
280 280 283 287 286 286 280 279 262 256 258 245 239 229 220 216 192 196 205 214 224 223 224 221 220 223 219 218 219 219 218 220 221 217 221 223 225 226 226 226 227 229 233
284 278 282 285 287 284 282 277 273 258 263 258 237 228 229 215 207 194 199 212 218 221 224 222 220 222 224 220 220 220 220 220 223 221 221 224 226 228 227 229 231 235 239
289 284 284 289 288 284 278 275 273 268 260 262 265 238 230 234 213 223 193 205 216 226 220 221 223 222 224 226 223 221 221 222 222 222 224 224 225 229 228 230 233 236 241
291 289 289 289 289 286 281 272 271 271 263 260 266 258 232 227 215 230 247 191 216 214 222 220 223 224 224 227 227 225 223 224 224 224 225 227 227 230 231 231 233 234 238
293 292 290 288 290 287 284 275 271 271 269 266 262 265 243 236 222 214 210 228 196 214 216 220 221 224 226 227 226 225 225 224 224 225 227 228 229 231 233 234 236 238 242
299 292 290 288 287 287 286 279 274 273 273 273 271 270 268 249 222 215 229 242 216 210 216 222 219 227 227 229 229 229 228 227 226 227 228 228 230 231 233 235 237 238 241
306 298 289 286 286 282 283 282 278 279 278 273 273 273 268 270 236 227 229 237 232 212 215 215 225 223 227 226 228 231 232 230 227 228 230 230 231 233 234 236 238 239 242
314 308 299 291 285 282 280 282 281 279 278 278 275 274 273 269 260 256 244 232 239 233 216 213 224 225 228 226 228 231 232 234 235 233 232 232 233 234 236 237 238 241 244
316 315 311 304 293 284 279 278 279 277 277 278 277 273 277 269 262 260 264 234 233 225 232 230 219 229 226 229 229 229 233 236 236 235 239 240 240 240 239 239 239 240 244
317 316 318 316 310 298 284 276 275 275 273 277 273 273 277 271 259 256 260 242 227 215 219 218 226 224 230 230 228 228 230 233 238 240 241 239 241 243 243 242 240 241 242